カタログに戻る

THOR ABLESTAR DEB

運用中LEO
NORAD 130·DEBRIS·🇺🇸 United States

打ち上げ Jun 29, 1961 から Cape Canaveral Space Force Station

Loading…

次のパス (今後24時間)

TLE

最新Source: Space-Track

元期: Sep 14, 2026, 08:46 UTC

1 00130U 61015Q   26257.36584361  .00000021  00000-0  66243-4 0  9993
2 00130  66.7723  30.5620 0090830 230.0346 129.2735 13.99444122323939

AllMySatでTHOR ABLESTAR DEBをリアルタイム追跡

Download on the App Store